Truckee, CA

10:24 PM PDT on September 25, 2016 (GMT -0700)
Truckee-Tahoe

Weather History for KTRK - September, 2013

Change the Weather History Date:

Wednesday, September 18, 2013

  Actual Average Record
Temperature  
Mean Temperature 46 °F -  
Max Temperature 68 °F 71 °F 87 °F (1981)
Min Temperature 24 °F 36 °F 20 °F (1961)
Degree Days  
Heating Degree Days 19    
Moisture  
Dew Point 27 °F    
Average Humidity 62    
Maximum Humidity 100    
Minimum Humidity 11    
Precipitation  
Precipitation 0.00 in - - ()
Sea Level Pressure  
Sea Level Pressure 30.10 in    
Wind  
Wind Speed 2 mph (East)    
Max Wind Speed 10 mph    
Max Gust Speed 16 mph    
Visibility 9 miles    
Events Fog    
Averages and records for this station are not official NWS values.
T = Trace of Precipitation, MM = Missing Value Source: NWS Daily Summary

Daily Weather History Graph

Daily Weather History Graph

Search for Another Location

Airport or City:

Trip Planner

Search our weather history database for the weather conditions in past years. The results will help you decide how hot, cold, wet, or windy it might be!

Date:

Astronomy

Sep. 18, 2013 Rise Set
Actual Time 6:44 AM PDT 7:03 PM PDT
Civil Twilight 6:18 AM PDT 7:30 PM PDT
Nautical Twilight 5:46 AM PDT 8:01 PM PDT
Astronomical Twilight 5:14 AM PDT 8:33 PM PDT
Moon 6:29 PM PDT (9/18) 5:53 AM PDT (9/18)
Length of Visible Light 13h 12m
Length of Day
12h 18m
Waxing Gibbous, 99% of the Moon is Illuminated
Sep 18
Waxing Gibbous
Sep 19
Full
Sep 26
Last Quarter
Oct 4
New
Oct 11
First Quarter

Hourly Weather History & Observations

Time (PDT) Temp. Windchill Dew Point Humidity Pressure Visibility Wind Dir Wind Speed Gust Speed Precip Events Conditions
12:15 AM 32.0 °F - 26.6 °F 80% 30.08 in 10.0 mi Calm Calm - N/A   Clear
12:35 AM 35.6 °F 31.7 °F 28.4 °F 75% 30.08 in 10.0 mi SSE 4.6 mph - N/A   Clear
12:55 AM 32.0 °F - 26.6 °F 80% 30.09 in 10.0 mi Calm Calm - N/A   Clear
1:15 AM 32.0 °F - 28.4 °F 87% 30.09 in 10.0 mi Calm Calm - N/A   Clear
1:35 AM 32.0 °F - 30.2 °F 93% 30.09 in 10.0 mi Calm Calm - N/A   Clear
1:55 AM 32.0 °F - 28.4 °F 87% 30.09 in 10.0 mi Calm Calm - N/A   Clear
2:15 AM 28.4 °F - 26.6 °F 93% 30.10 in 10.0 mi Calm Calm - N/A   Clear
2:35 AM 32.0 °F - 26.6 °F 80% 30.10 in 10.0 mi Calm Calm - N/A   Clear
2:55 AM 30.2 °F - 26.6 °F 86% 30.09 in 10.0 mi Calm Calm - N/A   Clear
3:15 AM 32.0 °F 28.7 °F 28.4 °F 87% 30.09 in 9.0 mi South 3.5 mph - N/A   Clear
3:35 AM 28.4 °F 24.6 °F 28.4 °F 100% 30.08 in 1.8 mi South 3.5 mph - N/A   Clear
3:55 AM 28.4 °F - 26.6 °F 93% 30.09 in 10.0 mi Calm Calm - N/A   Clear
4:15 AM 30.2 °F - 28.4 °F 93% 30.08 in 10.0 mi Calm Calm - N/A   Clear
4:35 AM 28.4 °F - 26.6 °F 93% 30.08 in 10.0 mi Calm Calm - N/A   Clear
4:55 AM 26.6 °F - 26.6 °F 100% 30.09 in 7.0 mi Calm Calm - N/A   Clear
5:15 AM 26.6 °F - 26.6 °F 100% 30.09 in 0.2 mi Calm Calm - N/A Fog Light Freezing Fog
5:35 AM 28.4 °F - 28.4 °F 100% 30.09 in 2.5 mi Calm Calm - N/A   Clear
5:55 AM 26.6 °F - 24.8 °F 93% 30.10 in 1.2 mi Calm Calm - N/A   Clear
6:15 AM 26.6 °F - 24.8 °F 93% 30.11 in 0.2 mi Calm Calm - N/A Fog Light Freezing Fog
6:35 AM 26.6 °F - 26.6 °F 100% 30.12 in 1.0 mi Calm Calm - N/A   Clear
6:50 AM 24.8 °F - 24.8 °F 100% 30.12 in 7.0 mi Calm Calm - N/A Fog Shallow Fog
7:45 AM 28.4 °F - 26.6 °F 93% 30.14 in 10.0 mi Calm Calm - N/A   Partly Cloudy
8:55 AM 39.2 °F - 32.0 °F 75% 30.15 in 10.0 mi Calm Calm - N/A   Partly Cloudy
9:55 AM 46.4 °F - 32.0 °F 57% 30.14 in 10.0 mi Calm Calm - N/A   Partly Cloudy
10:45 AM 50.0 °F - 32.0 °F 50% 30.14 in 10.0 mi Calm Calm - N/A   Partly Cloudy
11:50 AM 55.4 °F - 32.0 °F 41% 30.13 in 10.0 mi East 5.8 mph - N/A   Clear
12:45 PM 60.8 °F - 32.0 °F 34% 30.11 in 10.0 mi North 6.9 mph - N/A   Clear
1:45 PM 64.4 °F - 26.6 °F 24% 30.09 in 10.0 mi Calm Calm - N/A   Clear
2:45 PM 66.2 °F - 23.0 °F 19% 30.07 in 10.0 mi North 4.6 mph - N/A   Clear
3:45 PM 68.0 °F - 10.4 °F 11% 30.06 in 10.0 mi NNE 10.4 mph - N/A   Clear
4:50 PM 68.0 °F - 23.0 °F 18% 30.06 in 10.0 mi NE 9.2 mph 16.1 mph N/A   Clear
5:45 PM 66.2 °F - 26.6 °F 23% 30.06 in 10.0 mi ENE 5.8 mph - N/A   Clear
5:55 PM 66.2 °F - 26.6 °F 23% 30.06 in 10.0 mi ENE 6.9 mph - N/A   Clear
6:15 PM 66.2 °F - 26.6 °F 23% 30.07 in 10.0 mi NE 8.1 mph - N/A   Clear
6:35 PM 64.4 °F - 26.6 °F 24% 30.08 in 10.0 mi NE 6.9 mph - N/A   Clear
6:55 PM 62.6 °F - 26.6 °F 26% 30.08 in 10.0 mi NE 8.1 mph - N/A   Clear
7:15 PM 59.0 °F - 24.8 °F 27% 30.09 in 10.0 mi NE 3.5 mph - N/A   Clear
7:35 PM 59.0 °F - 24.8 °F 27% 30.09 in 10.0 mi Calm Calm - N/A   Clear
7:55 PM 55.4 °F - 24.8 °F 31% 30.10 in 10.0 mi Calm Calm - N/A   Clear
8:15 PM 50.0 °F - 24.8 °F 37% 30.11 in 10.0 mi Calm Calm - N/A   Clear
8:35 PM 48.2 °F - 26.6 °F 43% 30.12 in 10.0 mi Calm Calm - N/A   Clear
8:55 PM 46.4 °F 43.5 °F 26.6 °F 46% 30.13 in 10.0 mi SSE 5.8 mph - N/A   Clear
9:15 PM 44.6 °F - 26.6 °F 49% 30.14 in 10.0 mi Calm Calm - N/A   Clear
9:35 PM 44.6 °F 43.1 °F 26.6 °F 49% 30.14 in 10.0 mi SSE 3.5 mph - N/A   Clear
9:55 PM 44.6 °F 42.2 °F 26.6 °F 49% 30.14 in 10.0 mi SSE 4.6 mph - N/A   Clear
10:15 PM 44.6 °F - 28.4 °F 53% 30.14 in 10.0 mi Calm Calm - N/A   Clear
10:35 PM 44.6 °F 43.1 °F 28.4 °F 53% 30.14 in 10.0 mi South 3.5 mph - N/A   Clear
10:55 PM 41.0 °F - 26.6 °F 57% 30.15 in 10.0 mi Calm Calm - N/A   Clear
11:15 PM 41.0 °F - 26.6 °F 57% 30.15 in 10.0 mi Calm Calm - N/A   Clear
11:35 PM 37.4 °F 34.9 °F 26.6 °F 65% 30.15 in 10.0 mi SW 3.5 mph - N/A   Clear
11:55 PM 37.4 °F - 28.4 °F 70% 30.15 in 10.0 mi Calm Calm - N/A   Clear